Weather History for West Palm Beach, FL

Change the Weather History Date:

Thursday, September 19, 2013

  Actual Average Record
Temperature  
Mean Temperature 81 °F 82 °F  
Max Temperature 88 °F 88 °F 94 °F (1951)
Min Temperature 73 °F 75 °F 68 °F (1910)
Degree Days  
Heating Degree Days 0 0  
Month to date heating degree days 0 0  
Since 1 July heating degree days 0 0  
Cooling Degree Days 16 17  
Month to date cooling degree days 322 323  
Year to date cooling degree days 3193 3029  
Growing Degree Days 30 (Base 50)    
Moisture  
Dew Point 74 °F    
Average Humidity 76    
Maximum Humidity 88    
Minimum Humidity 63    
Precipitation  
Precipitation T in 0.30 in 5.90 in (1909)
Month to date precipitation 6.93 5.43  
Year to date precipitation 54.55 46.15  
Snow  
Snow 0.00 in - - ()
Month to date snowfall 0.0  
Since 1 July snowfall 0.0  
Since 1 September snowfall 0.0  
Snow Depth 0.00 in    
Sea Level Pressure  
Sea Level Pressure 29.98 in    
Wind  
Wind Speed 9 mph (ENE)    
Max Wind Speed 17 mph    
Max Gust Speed 24 mph    
Visibility 10 miles    
Events Rain    
T = Trace of Precipitation, MM = Missing Value Source: NWS Daily Summary

Daily Weather History Graph

Daily Weather History Graph

Search for Another Location

Airport:

Trip Planner

Search our weather history database for the weather conditions in past years. The results will help you decide how hot, cold, wet, or windy it might be!

Date:

Astronomy

Sep. 19, 2013 Rise Set
Actual Time 7:07 AM EDT 7:19 PM EDT
Civil Twilight 6:44 AM EDT 7:43 PM EDT
Nautical Twilight 6:17 AM EDT 8:10 PM EDT
Astronomical Twilight 5:50 AM EDT 8:37 PM EDT
Moon 7:24 PM EDT (9/19) 7:10 AM EDT (9/19)
Length of Visible Light 12h 58m
Length of Day
12h 12m
Full, 100% of the Moon is Illuminated
Sep 19
Full
Sep 26
Last Quarter
Oct 4
New
Oct 11
First Quarter
Oct 18
Full

Hourly Weather History & Observations

Time (EDT) Temp. Heat Index Dew Point Humidity Pressure Visibility Wind Dir Wind Speed Gust Speed Precip Events Conditions
12:53 AM 76.1 °F - 71.2 °F 85% 29.99 in 10.0 mi North 3.5 mph - N/A   Mostly Cloudy
1:53 AM 76.1 °F - 71.6 °F 86% 29.98 in 10.0 mi North 3.5 mph - N/A   Mostly Cloudy
2:53 AM 76.1 °F - 72.0 °F 87% 29.95 in 10.0 mi Calm Calm - N/A   Scattered Clouds
3:53 AM 75.9 °F - 71.4 °F 86% 29.95 in 10.0 mi Calm Calm - N/A   Scattered Clouds
4:53 AM 75.9 °F - 71.8 °F 87% 29.93 in 10.0 mi NNW 3.5 mph - N/A   Scattered Clouds
5:53 AM 75.7 °F - 71.8 °F 87% 29.94 in 10.0 mi Calm Calm - N/A   Scattered Clouds
6:53 AM 77.0 °F - 73.4 °F 89% 29.95 in 10.0 mi Calm Calm - N/A   Mostly Cloudy
7:53 AM 80.1 °F 85.4 °F 75.9 °F 87% 29.96 in 10.0 mi ENE 6.9 mph - 0.00 in Rain Light Rain
8:53 AM 82.9 °F 91.8 °F 77.0 °F 82% 29.98 in 10.0 mi NE 6.9 mph - 0.00 in   Mostly Cloudy
9:53 AM 84.0 °F 92.6 °F 75.9 °F 76% 29.99 in 10.0 mi NE 12.7 mph - N/A   Scattered Clouds
10:53 AM 85.8 °F 96.8 °F 77.0 °F 75% 30.01 in 10.0 mi ENE 10.4 mph - N/A   Mostly Cloudy
11:53 AM 87.1 °F 98.8 °F 77.0 °F 72% 30.01 in 10.0 mi East 12.7 mph - N/A   Mostly Cloudy
12:53 PM 86.0 °F 96.9 °F 77.0 °F 74% 29.99 in 10.0 mi ENE 13.8 mph - N/A   Mostly Cloudy
1:36 PM 84.2 °F 92.3 °F 75.2 °F 74% 29.98 in 10.0 mi ENE 13.8 mph - N/A   Mostly Cloudy
1:53 PM 84.9 °F 92.1 °F 73.9 °F 69% 29.98 in 10.0 mi ENE 13.8 mph - N/A   Mostly Cloudy
2:29 PM 86.0 °F 95.1 °F 75.2 °F 70% 29.97 in 10.0 mi ENE 15.0 mph - N/A   Mostly Cloudy
2:53 PM 86.0 °F 95.1 °F 75.0 °F 70% 29.96 in 10.0 mi East 17.3 mph 24.2 mph N/A   Mostly Cloudy
3:53 PM 84.0 °F 90.8 °F 73.8 °F 71% 29.96 in 10.0 mi ENE 15.0 mph - N/A   Mostly Cloudy
4:53 PM 82.9 °F 89.4 °F 73.8 °F 74% 29.96 in 10.0 mi ENE 10.4 mph - N/A   Mostly Cloudy
5:53 PM 82.0 °F 87.7 °F 73.6 °F 75% 29.97 in 10.0 mi NE 10.4 mph - N/A   Mostly Cloudy
6:38 PM 80.6 °F 86.2 °F 75.2 °F 84% 29.97 in 10.0 mi ENE 12.7 mph 20.7 mph 0.00 in Rain Light Rain
6:53 PM 80.1 °F 84.5 °F 73.9 °F 81% 29.97 in 10.0 mi ENE 10.4 mph - 0.00 in Rain Light Rain
7:24 PM 82.4 °F 89.5 °F 75.2 °F 79% 29.98 in 10.0 mi ENE 9.2 mph - 0.00 in   Mostly Cloudy
7:53 PM 81.0 °F 85.6 °F 72.9 °F 76% 29.98 in 10.0 mi ENE 13.8 mph - 0.00 in   Mostly Cloudy
8:53 PM 82.0 °F 86.3 °F 71.1 °F 69% 30.00 in 10.0 mi ENE 13.8 mph - N/A   Mostly Cloudy
9:53 PM 82.0 °F 85.5 °F 69.1 °F 65% 30.00 in 10.0 mi East 10.4 mph - N/A   Mostly Cloudy
10:53 PM 82.0 °F 85.3 °F 68.7 °F 64% 30.01 in 10.0 mi ENE 10.4 mph - N/A   Scattered Clouds
11:53 PM 76.3 °F - 68.2 °F 76% 30.00 in 10.0 mi ENE 8.1 mph - N/A   Scattered Clouds